Santo Pekoa International Airport
NVSS : now visible

Airfield :











YOU CAN JOIN US ON...

 
LOGIN :

Register | Disclaimer

   EN    FR    IT 

 









Legend :    VFR   Marginal VFR   IFR   Intensive IFR   Very Intensive IFR
Visi :
Ceiling :
>= 8 km
>= 3000ft
5 to 8 km
1000 to 3000 ft
1500m to 5 km
500 to 1000 ft
800 to 1500m
200 to 500 ft
< 800m
< 200 ft
Symbols :   Thunderstorms  Fog  Heavy snow  Heavy precipitations  Wind > 20 kt






- Airport Elevation : 184 ft
- IATA code : SON


NVSS - Santo Pekoa International

CURRENT METAR :
  • 170300Z 06005KT 9999 TS BKN020 FEW025CB 26/24 Q1011

EXPIRED METARs :
  • 170200Z 09008KT 9999 BKN020 FEW025CB 27/23 Q1012
  • 170100Z 08006KT 9999 SCT020 FEW025CB 29/23 Q1013

TAF TAF NVSS
Valid from the 17 at 00:00 until the 18 at 00:00 UTC


162220Z 1700/1724 06006KT 9999 SCT020 BKN040 INTER 1700/1706 9000 -SHRA BKN018
NFFF FIR / Oceania



MET'MAP, your aeronautical weather chart ! - Copyright ORBIFLY December 2007 - Disclaimer

ORBIFLY MET'MAP TEAM :

Programming & Development : Alexandra Zaïnal
Concept & original design : Baudouin d'Aumeries
Assistance for programming : Marc-Olivier Méhu
Technical & hardware support : Manuel Goepfert

Contact : metmap@orbifly.com




SOURCES & CREDITS :

   NOAA       Earth
Advisory